Simultaneous Nadir Overpasses (SNOs) Predictions

Prediction of SNOs between NPP and METOP-C Satellite Orbit:

Table of predicted SNOs for the next 14.0 days since TLE Epoch: 7/7/2022
Index Date (NPP) Time (NPP) Lat,Lon (NPP) SZA (NPP ) Date (METOP-C) Time (METOP-C) Lat,Lon (METOP-C) SZA (METOP-C ) Distance(km) Time Diff (sec)
1 07/20/2022 18:05:19 73.35,-100.72 53.06 07/20/2022 18:06:27 73.32, -98.47 52.88 71.83 68
2 07/20/2022 18:56:02 -73.29, 66.73 127.00 07/20/2022 18:57:11 -73.24, 68.68 127.18 62.88 69
3 07/20/2022 19:46:43 73.05,-125.44 52.74 07/20/2022 19:47:55 72.99,-124.52 52.61 30.54 72
4 07/20/2022 20:37:26 -72.99, 42.01 127.32 07/20/2022 20:38:39 -72.92, 42.65 127.45 22.51 73
5 07/20/2022 21:28:08 72.80,-150.28 52.47 07/20/2022 21:29:20 72.82,-150.22 52.47 2.68 72
6 07/20/2022 22:18:52 -72.79, 17.05 127.53 07/20/2022 22:20:03 -72.79, 17.05 127.55 0.18 71
7 07/20/2022 23:09:38 72.80,-175.66 52.49 07/20/2022 23:10:42 72.80,-175.61 52.47 1.69 64
8 07/21/2022 00:00:22 -72.80, -8.32 127.52 07/21/2022 00:01:25 -72.77, -8.34 127.55 2.58 63
9 07/21/2022 00:51:07 72.75, 159.07 52.45 07/21/2022 00:52:04 72.78, 159.01 52.46 3.20 57
10 07/21/2022 01:41:52 -72.80, -33.70 127.50 07/21/2022 01:42:46 -72.80, -33.62 127.51 2.89 54
11 07/21/2022 02:32:37 72.76, 133.69 52.46 07/21/2022 02:33:26 72.75, 133.62 52.45 2.33 49



Historial Predications of SNOs between NPP and METOP-C
